• In Hungary
  • List of Countries
  • For 7 days
  • Water Temperature
  • Satellite Maps
  • Weather Map
  • News
  • Weather Widgets
  • user-avatar
    Login

    Hourly Weather Nishevicy

    Today, 14 August, Tuesday

    Time Temperature Precipitation Wind Pressure Humidity
    00:00 +12°C° 0 mm 2 mps 740 mmHg 97%
    01:00 +12°C° 0 mm 2 mps 740 mmHg 98%
    02:00 +11°C° 0 mm 1 mps 740 mmHg 97%
    03:00 +11°C° 0 mm 1 mps 740 mmHg 97%
    04:00 +11°C° 0 mm 1 mps 741 mmHg 97%
    05:00 +11°C° 0 mm 1 mps 741 mmHg 97%
    06:00 +13°C° 0 mm 1 mps 741 mmHg 91%
    07:00 +15°C° 0 mm 1 mps 741 mmHg 85%
    08:00 +18°C° 0 mm 1 mps 741 mmHg 75%
    09:00 +20°C° 0 mm 1 mps 741 mmHg 67%
    10:00 +21°C° 0 mm 1 mps 741 mmHg 59%
    11:00 +23°C° 0 mm 1 mps 741 mmHg 51%
    12:00 +24°C° 0 mm 1 mps 741 mmHg 48%
    13:00 +24°C° 0 mm 1 mps 741 mmHg 46%
    14:00 +26°C° 0 mm 1 mps 741 mmHg 41%
    15:00 +25°C° 0 mm 1 mps 741 mmHg 44%
    16:00 +25°C° 0 mm 1 mps 741 mmHg 47%
    17:00 +25°C° 0 mm 1 mps 740 mmHg 50%
    18:00 +22°C° 0 mm 1 mps 740 mmHg 58%
    19:00 +20°C° 0 mm 1 mps 740 mmHg 65%
    20:00 +18°C° 0 mm 1 mps 740 mmHg 73%
    21:00 +18°C° 0.1 mm 1 mps 740 mmHg 76%
    22:00 +17°C° 0.1 mm 2 mps 740 mmHg 80%
    23:00 +17°C° 0.1 mm 2 mps 739 mmHg 83%

    Tomorrow, 15 August, Wednesday

    Time Temperature Precipitation Wind Pressure Humidity
    00:00 +17°C° 1.2 mm 2 mps 739 mmHg 88%
    01:00 +17°C° 1.2 mm 2 mps 738 mmHg 93%
    02:00 +17°C° 1.2 mm 2 mps 738 mmHg 97%
    03:00 +17°C° 1.1 mm 2 mps 738 mmHg 97%
    04:00 +17°C° 1.1 mm 3 mps 737 mmHg 98%
    05:00 +17°C° 1.1 mm 3 mps 737 mmHg 98%
    06:00 +18°C° 0.6 mm 3 mps 736 mmHg 97%
    07:00 +18°C° 0.6 mm 3 mps 736 mmHg 96%
    08:00 +19°C° 0.6 mm 3 mps 736 mmHg 95%
    09:00 +19°C° 0.3 mm 3 mps 736 mmHg 93%
    10:00 +20°C° 0.3 mm 4 mps 736 mmHg 91%
    11:00 +21°C° 0.3 mm 4 mps 736 mmHg 88%
    12:00 +20°C° 0.1 mm 4 mps 736 mmHg 86%
    13:00 +20°C° 0.1 mm 4 mps 737 mmHg 83%
    14:00 +20°C° 0.1 mm 4 mps 737 mmHg 80%
    15:00 +20°C° 0 mm 3 mps 737 mmHg 78%
    16:00 +21°C° 0 mm 3 mps 737 mmHg 76%
    17:00 +21°C° 0 mm 2 mps 738 mmHg 74%
    18:00 +20°C° 0.1 mm 2 mps 738 mmHg 81%
    19:00 +19°C° 0.1 mm 1 mps 738 mmHg 87%
    20:00 +18°C° 0.1 mm 1 mps 739 mmHg 94%
    21:00 +16°C° 0 mm 1 mps 739 mmHg 95%
    22:00 +16°C° 0 mm 1 mps 739 mmHg 96%
    23:00 +15°C° 0 mm 1 mps 739 mmHg 97%

    Day after tomorrow, 16 August, Thursday

    Time Temperature Precipitation Wind Pressure Humidity
    00:00 +15°C° 0 mm 1 mps 739 mmHg 97%
    01:00 +15°C° 0 mm 1 mps 740 mmHg 98%
    02:00 +14°C° 0 mm 1 mps 740 mmHg 98%
    03:00 +14°C° 0 mm 1 mps 740 mmHg 98%
    04:00 +14°C° 0 mm 1 mps 741 mmHg 98%
    05:00 +14°C° 0 mm 1 mps 741 mmHg 98%
    06:00 +15°C° 0 mm 1 mps 741 mmHg 95%
    07:00 +16°C° 0 mm 1 mps 742 mmHg 93%
    08:00 +16°C° 0 mm 2 mps 742 mmHg 90%
    09:00 +17°C° 0 mm 2 mps 742 mmHg 88%
    10:00 +17°C° 0 mm 2 mps 743 mmHg 85%
    11:00 +18°C° 0 mm 2 mps 743 mmHg 83%
    12:00 +18°C° 0.1 mm 2 mps 743 mmHg 81%
    13:00 +19°C° 0.1 mm 2 mps 743 mmHg 78%
    14:00 +19°C° 0.1 mm 2 mps 743 mmHg 75%
    15:00 +19°C° 0 mm 2 mps 744 mmHg 74%
    16:00 +20°C° 0 mm 2 mps 744 mmHg 72%
    17:00 +20°C° 0 mm 2 mps 744 mmHg 71%
    18:00 +18°C° 0 mm 2 mps 744 mmHg 76%
    19:00 +18°C° 0 mm 1 mps 745 mmHg 81%
    20:00 +16°C° 0 mm 1 mps 745 mmHg 87%
    21:00 +15°C° 0 mm 1 mps 745 mmHg 88%
    22:00 +14°C° 0 mm 1 mps 745 mmHg 90%
    23:00 +14°C° 0 mm 1 mps 746 mmHg 92%

    17 August, Friday

    Time Temperature Precipitation Wind Pressure Humidity
    00:00 +13°C° 0 mm 1 mps 746 mmHg 93%
    01:00 +13°C° 0 mm 1 mps 746 mmHg 94%
    02:00 +12°C° 0 mm 1 mps 746 mmHg 95%
    03:00 +12°C° 0 mm 1 mps 746 mmHg 95%
    04:00 +12°C° 0 mm 1 mps 746 mmHg 95%
    05:00 +12°C° 0 mm 1 mps 747 mmHg 95%
    06:00 +14°C° 0 mm 1 mps 747 mmHg 86%
    07:00 +16°C° 0 mm 1 mps 747 mmHg 78%
    08:00 +18°C° 0 mm 2 mps 747 mmHg 69%
    09:00 +20°C° 0 mm 2 mps 747 mmHg 63%
    10:00 +21°C° 0 mm 2 mps 747 mmHg 56%
    11:00 +23°C° 0 mm 2 mps 747 mmHg 50%
    12:00 +24°C° 0 mm 2 mps 747 mmHg 48%
    13:00 +25°C° 0 mm 2 mps 747 mmHg 46%
    14:00 +25°C° 0 mm 2 mps 747 mmHg 44%
    15:00 +25°C° 0 mm 2 mps 747 mmHg 48%
    16:00 +25°C° 0 mm 2 mps 746 mmHg 52%
    17:00 +24°C° 0 mm 1 mps 746 mmHg 56%
    18:00 +22°C° 0 mm 1 mps 746 mmHg 63%
    19:00 +19°C° 0 mm 2 mps 746 mmHg 70%
    20:00 +17°C° 0 mm 2 mps 746 mmHg 76%
    21:00 +16°C° 0 mm 2 mps 746 mmHg 80%
    22:00 +15°C° 0 mm 2 mps 746 mmHg 83%
    23:00 +15°C° 0 mm 2 mps 747 mmHg 86%

    18 August, Saturday

    Time Temperature Precipitation Wind Pressure Humidity
    00:00 +14°C° 0 mm 2 mps 747 mmHg 88%
    01:00 +14°C° 0 mm 2 mps 746 mmHg 89%
    02:00 +13°C° 0 mm 2 mps 746 mmHg 91%
    03:00 +13°C° 0 mm 2 mps 747 mmHg 92%
    04:00 +13°C° 0 mm 2 mps 747 mmHg 93%
    05:00 +13°C° 0 mm 2 mps 747 mmHg 93%
    06:00 +15°C° 0 mm 2 mps 747 mmHg 85%
    07:00 +17°C° 0 mm 2 mps 747 mmHg 78%
    08:00 +19°C° 0 mm 2 mps 747 mmHg 70%
    09:00 +20°C° 0 mm 2 mps 747 mmHg 64%
    10:00 +22°C° 0 mm 3 mps 747 mmHg 58%
    11:00 +25°C° 0 mm 3 mps 747 mmHg 52%
    12:00 +25°C° 0 mm 3 mps 747 mmHg 50%
    13:00 +26°C° 0 mm 3 mps 746 mmHg 49%
    14:00 +27°C° 0 mm 3 mps 746 mmHg 48%
    15:00 +26°C° 0 mm 2 mps 746 mmHg 52%
    16:00 +26°C° 0 mm 2 mps 746 mmHg 55%
    17:00 +26°C° 0 mm 2 mps 745 mmHg 59%
    18:00 +24°C° 0 mm 2 mps 745 mmHg 67%
    19:00 +21°C° 0 mm 2 mps 745 mmHg 74%
    20:00 +19°C° 0 mm 2 mps 745 mmHg 82%
    21:00 +18°C° 0 mm 2 mps 745 mmHg 85%
    22:00 +17°C° 0 mm 2 mps 745 mmHg 87%
    23:00 +17°C° 0 mm 2 mps 745 mmHg 90%

    19 August, Sunday

    Time Temperature Precipitation Wind Pressure Humidity
    00:00 +17°C° 0 mm 2 mps 745 mmHg 89%
    01:00 +17°C° 0 mm 3 mps 745 mmHg 88%
    02:00 +16°C° 0 mm 3 mps 745 mmHg 88%
    03:00 +16°C° 0.1 mm 3 mps 744 mmHg 89%
    04:00 +16°C° 0.1 mm 3 mps 744 mmHg 91%
    05:00 +16°C° 0.1 mm 3 mps 744 mmHg 93%
    06:00 +17°C° 0.3 mm 3 mps 744 mmHg 90%
    07:00 +18°C° 0.3 mm 3 mps 744 mmHg 88%
    08:00 +19°C° 0.3 mm 3 mps 744 mmHg 86%
    09:00 +20°C° 0.2 mm 3 mps 744 mmHg 82%
    10:00 +22°C° 0.2 mm 4 mps 744 mmHg 79%
    11:00 +23°C° 0.2 mm 4 mps 744 mmHg 75%
    12:00 +24°C° 0.8 mm 3 mps 743 mmHg 77%
    13:00 +24°C° 0.8 mm 3 mps 743 mmHg 79%
    14:00 +22°C° 0.8 mm 3 mps 743 mmHg 81%
    15:00 +22°C° 0.4 mm 3 mps 743 mmHg 82%
    16:00 +21°C° 0.4 mm 2 mps 743 mmHg 83%
    17:00 +20°C° 0.4 mm 2 mps 743 mmHg 83%
    18:00 +19°C° 0 mm 2 mps 743 mmHg 85%
    19:00 +18°C° 0 mm 2 mps 743 mmHg 86%
    20:00 +18°C° 0 mm 1 mps 743 mmHg 88%
    21:00 +16°C° 0 mm 2 mps 743 mmHg 90%
    22:00 +16°C° 0 mm 2 mps 743 mmHg 91%
    23:00 +15°C° 0 mm 2 mps 743 mmHg 93%
    Show more